Date String (YYYY-MM-DD hh:mm:ss) UTC,Instrument flags,Ambient pressure (hPa),Sample flow (lpm),Bypass flow (lpm),Sample temperature (°C),Ambient temperature (°C),ASC tube jacket temperature (°C),LED temperature (°C),Box temperature (°C),Sample RH (%),Span deviation,Mass concentration (μg/m³),Mass concentration (μg/m³),Mass concentration (μg/m³)
DateTimeUTC,F1_M11,P_M11,Q1_M11,Q2_M11,T1_M11,T2_M11,T3_M11,T4_M11,T5_M11,U1_M11,ZSPAN_M11,X2_M11,X0_M11,X1_M11
2022-08-14 23:00:00,,0827.6,5.00,0.00,30.4,27.2,00.0,38.7,31.1,33.5,0000.0,0004.89,0009.40,0004.26
2022-08-14 23:01:00,,0827.7,5.01,0.00,30.3,27.3,00.0,38.7,31.2,33.9,0000.0,0004.85,0008.35,0004.28
2022-08-14 23:02:00,,0827.6,4.99,0.00,30.3,27.5,00.0,38.7,31.3,33.8,0000.0,0004.86,0008.18,0004.29
2022-08-14 23:03:00,,0827.6,5.01,0.00,30.3,27.7,00.0,38.7,31.3,33.6,0000.0,0004.85,0008.12,0004.30
2022-08-14 23:04:00,,0827.6,4.99,0.00,30.3,27.9,00.0,38.7,31.4,33.4,0000.0,0004.87,0008.43,0004.31
2022-08-14 23:05:00,,0827.6,5.00,0.00,30.2,28.1,00.0,38.7,31.5,33.9,0000.0,0004.88,0008.82,0004.31
2022-08-14 23:06:00,,0827.6,5.01,0.00,30.3,28.2,00.0,38.7,31.6,33.7,0000.0,0004.87,0008.75,0004.32
2022-08-14 23:07:00,,0827.6,4.98,0.00,30.3,28.3,00.0,38.7,31.6,33.8,0000.0,0004.89,0008.84,0004.32
2022-08-14 23:08:00,,0827.6,5.00,0.00,30.2,27.9,00.0,38.7,31.4,34.3,0000.0,0004.88,0008.89,0004.31
2022-08-14 23:09:00,,0827.5,5.01,0.00,30.2,27.3,00.0,38.7,31.2,34.1,0000.0,0004.82,0008.74,0004.29
2022-08-14 23:10:00,,0827.5,5.00,0.00,30.1,27.1,00.0,38.6,31.2,34.4,0000.0,0004.77,0008.68,0004.27
2022-08-14 23:11:00,,0827.5,4.98,0.00,30.0,27.1,00.0,38.6,31.1,34.3,0000.0,0004.71,0008.56,0004.22
2022-08-14 23:12:00,,0827.4,5.01,0.00,29.9,27.3,00.0,38.6,31.1,34.4,0000.0,0004.71,0008.56,0004.20
2022-08-14 23:13:00,,0827.4,5.00,0.00,29.9,27.4,00.0,38.6,31.1,34.2,0000.0,0004.70,0008.51,0004.20
2022-08-14 23:14:00,,0827.4,5.01,0.00,29.9,27.7,00.0,38.5,31.2,34.3,0000.0,0004.73,0008.55,0004.19
2022-08-14 23:15:00,,0827.3,4.99,0.00,29.9,27.8,00.0,38.5,31.3,34.2,0000.0,0004.71,0008.15,0004.18
2022-08-14 23:16:00,,0827.2,5.01,0.00,29.9,28.0,00.0,38.5,31.4,33.9,0000.0,0004.71,0007.82,0004.18
2022-08-14 23:17:00,,0827.2,5.00,0.00,29.9,28.2,00.0,38.6,31.5,33.5,0000.0,0004.71,0007.99,0004.17
2022-08-14 23:18:00,,0827.3,5.00,0.00,29.9,28.3,00.0,38.6,31.5,33.6,0000.0,0004.72,0008.18,0004.18
2022-08-14 23:19:00,,0827.2,4.99,0.00,29.9,28.0,00.0,38.5,31.4,33.8,0000.0,0004.74,0008.20,0004.18
2022-08-14 23:20:00,,0827.2,5.01,0.00,29.8,27.4,00.0,38.5,31.2,33.4,0000.0,0004.79,0008.29,0004.22
2022-08-14 23:21:00,,0827.2,5.01,0.00,29.8,27.1,00.0,38.4,31.1,33.3,0000.0,0004.83,0008.45,0004.24
2022-08-14 23:22:00,,0827.3,4.99,0.00,29.7,27.1,00.0,38.4,31.0,33.2,0000.0,0004.88,0008.60,0004.26
2022-08-14 23:23:00,,0827.3,4.98,0.00,29.6,27.2,00.0,38.4,31.0,32.4,0000.0,0004.88,0008.63,0004.26
2022-08-14 23:24:00,,0827.3,4.99,0.00,29.6,27.4,00.0,38.4,31.1,32.6,0000.0,0004.85,0009.11,0004.25
2022-08-14 23:25:00,,0827.3,5.01,0.00,29.6,27.6,00.0,38.4,31.2,32.9,0000.0,0004.84,0009.12,0004.24
2022-08-14 23:26:00,,0827.3,4.99,0.00,29.6,27.8,00.0,38.4,31.2,32.9,0000.0,0004.86,0009.33,0004.23
2022-08-14 23:27:00,,0827.3,5.00,0.00,29.7,28.0,00.0,38.4,31.3,33.3,0000.0,0004.87,0009.33,0004.22
2022-08-14 23:28:00,,0827.2,5.00,0.00,29.7,28.2,00.0,38.4,31.4,33.2,0000.0,0004.86,0009.30,0004.20
2022-08-14 23:29:00,,0827.2,5.00,0.00,29.7,28.3,00.0,38.4,31.4,33.1,0000.0,0004.82,0009.29,0004.17
2022-08-14 23:30:00,,0827.2,5.01,0.00,29.7,28.2,00.0,38.4,31.4,32.8,0000.0,0004.73,0009.25,0004.14
2022-08-14 23:31:00,,0827.2,4.99,0.00,29.7,27.6,00.0,38.3,31.2,32.7,0000.0,0004.67,0009.14,0004.12
2022-08-14 23:32:00,,0827.3,5.01,0.00,29.6,27.2,00.0,38.3,31.1,33.1,0000.0,0004.63,0008.99,0004.09
2022-08-14 23:33:00,,0827.1,5.01,0.00,29.5,27.2,00.0,38.2,31.0,33.3,0000.0,0004.61,0008.92,0004.07
2022-08-14 23:34:00,,0827.0,4.99,0.00,29.5,27.3,00.0,38.2,31.0,33.2,0000.0,0004.62,0008.94,0004.08
2022-08-14 23:35:00,,0827.1,5.00,0.00,29.4,27.4,00.0,38.2,31.0,33.3,0000.0,0004.60,0008.38,0004.07
2022-08-14 23:36:00,,0827.2,5.00,0.00,29.4,27.6,00.0,38.2,31.1,33.6,0000.0,0004.57,0008.58,0004.06
2022-08-14 23:37:00,,0827.1,5.00,0.00,29.5,27.8,00.0,38.2,31.2,32.6,0000.0,0004.50,0008.35,0004.05
2022-08-14 23:38:00,,0827.0,4.99,0.00,29.5,28.0,00.0,38.2,31.3,32.5,0000.0,0004.49,0008.32,0004.04
2022-08-14 23:39:00,,0827.0,5.01,0.00,29.5,28.2,00.0,38.2,31.3,33.1,0000.0,0004.47,0008.21,0004.04
2022-08-14 23:40:00,,0827.0,5.00,0.00,29.6,28.3,00.0,38.3,31.4,33.4,0000.0,0004.47,0007.95,0004.05
2022-08-14 23:41:00,,0827.1,5.00,0.00,29.6,28.2,00.0,38.2,31.4,32.8,0000.0,0004.51,0007.93,0004.06
2022-08-14 23:42:00,,0827.0,5.01,0.00,29.5,27.6,00.0,38.2,31.2,32.3,0000.0,0004.53,0008.00,0004.07
2022-08-14 23:43:00,,0827.0,4.99,0.00,29.5,27.2,00.0,38.2,31.1,31.8,0000.0,0004.55,0008.15,0004.08
2022-08-14 23:44:00,,0826.9,5.01,0.00,29.4,27.2,00.0,38.1,31.0,32.1,0000.0,0004.53,0008.15,0004.07
2022-08-14 23:45:00,,0826.9,5.01,0.00,29.3,27.2,00.0,38.1,30.9,32.6,0000.0,0004.49,0008.10,0004.03
2022-08-14 23:46:00,,0826.9,4.99,0.00,29.3,27.4,00.0,38.1,31.0,33.8,0000.0,0004.47,0008.09,0004.01
2022-08-14 23:47:00,,0826.9,5.01,0.00,29.3,27.6,00.0,38.1,31.1,34.3,0000.0,0004.42,0007.67,0003.97
2022-08-14 23:48:00,,0826.9,4.99,0.00,29.3,27.7,00.0,38.1,31.2,34.5,0000.0,0004.38,0007.58,0003.94
2022-08-14 23:49:00,,0826.8,5.00,0.00,29.4,27.9,00.0,38.1,31.2,34.8,0000.0,0004.32,0007.49,0003.90
2022-08-14 23:50:00,,0827.0,5.00,0.00,29.5,28.1,00.0,38.1,31.3,33.7,0000.0,0004.29,0007.41,0003.86
2022-08-14 23:51:00,,0827.1,5.01,0.00,29.5,28.3,00.0,38.2,31.4,32.6,0000.0,0004.28,0007.76,0003.84
2022-08-14 23:52:00,,0826.9,5.00,0.00,29.6,28.4,00.0,38.2,31.4,33.3,0000.0,0004.24,0008.36,0003.80
2022-08-14 23:53:00,,0826.8,4.99,0.00,29.6,28.2,00.0,38.2,31.3,34.7,0000.0,0004.22,0008.43,0003.76
2022-08-14 23:54:00,,0826.9,4.99,0.00,29.6,27.6,00.0,38.1,31.2,36.0,0000.0,0004.20,0008.50,0003.71
2022-08-14 23:55:00,,0826.9,4.99,0.00,29.9,27.3,00.0,38.1,31.3,35.7,0000.0,0004.16,0008.60,0003.66
2022-08-14 23:56:00,,0826.9,5.00,0.00,30.1,27.2,00.0,38.1,31.3,34.8,0000.0,0004.11,0008.60,0003.61
2022-08-14 23:57:00,,0826.9,4.99,0.00,30.3,27.3,00.0,38.1,31.4,34.3,0000.0,0004.05,0008.62,0003.55
2022-08-14 23:58:00,,0826.9,5.01,0.00,30.4,27.4,00.0,38.2,31.4,34.2,0000.0,0004.03,0008.94,0003.50
2022-08-14 23:59:00,,0826.9,4.99,0.00,30.5,27.6,00.0,38.3,31.4,33.8,0000.0,0004.00,0009.62,0003.45
